Location: Piolenc
(44.1794°N, 4.7641°E)
Time: 04:11:05
(UTC+00:00)

Cosmos 1892 - Pass Details

Date: 27 January 2021
Orbit: 504 x 522 km, 82.5° (Epoch: 27 February)

Event Time Altitude Azimuth Distance (km) Brightness Sun altitude
Rises 06:13:11 0° 349° (N) 2,646 6.0 -9.3°
Reaches altitude 10° 06:15:19 10° 348° (NNW) 1,757 5.1 -9.0°
Maximum altitude 06:19:10 75° 264° (W) 543 2.6 -8.3°
Drops below altitude 10° 06:23:00 10° 178° (S) 1,751 5.7 -7.6°
Sets 06:25:08 0° 177° (S) 2,635 6.6 -7.3°
